Rio Vista Municipal (O88)
Rio Vista, CA
Field Elevation: 23
Lat: 38°11.60N  Long: 121°42.22W
CTAF/Unicom Freq: 122.7250
   
     For Weather-by-Phone, call (707) 374-5396
Weather Advisories
12/22/2014 05:32 Z
Altimeter 30.27" Hg
Wind 240° @ 5 KT
Gusts --
Visibility 10 SM
Ceiling CLR
Temperature 14° C (57° F)
Dewpoint 14° C (57° F)
Relative Humidity 100%
Density Altitude --
Condensation Altitude --
  Wind and Runways
Indicated Runway = 25
History
 
 
More Info
All DigiWx sites map
NOAA Forecast
 
Airport IQ 5010
(DUC) Stack Farm
(CA37) Dominican
 
about DigiWx
 
FAA Disclaimer: The data displayed is for advisory purposes only and is not to be used for flight planning or operations. For official data, please call (707) 374-5396 to hear the current automated AWOS voice message.
  METAR O88 220532Z AUTO 24005KT 10SM CLR 14/14 A3027